�������l�o���
Date,Time,MP-1(��Sv/h),MP-2(��Sv/h),MP-3(��Sv/h),MP-4(��Sv/h),MP-5(��Sv/h),MP-6(��Sv/h),MP-7(��Sv/h),MP-8(��Sv/h),����,����(m/s),���J
2021/04/11,00:00,0.631,0.939,0.589,1.157,0.827,0.369,0.653,0.614,�k��,6.3,��
2021/04/11,00:10,0.631,0.939,0.589,1.158,0.829,0.371,0.654,0.614,�k��,6.6,��
2021/04/11,00:20,0.632,0.938,0.589,1.158,0.829,0.371,0.654,0.614,�k��,6.3,��
2021/04/11,00:30,0.632,0.937,0.588,1.157,0.826,0.371,0.654,0.614,�k��,5.5,��
2021/04/11,00:40,0.632,0.940,0.589,1.156,0.827,0.370,0.653,0.616,�k��,5.4,��
2021/04/11,00:50,0.631,0.938,0.590,1.158,0.827,0.371,0.654,0.615,�k��,6.0,��
2021/04/11,01:00,0.632,0.940,0.588,1.160,0.827,0.371,0.654,0.613,�k��,5.7,��
2021/04/11,01:10,0.632,0.939,0.589,1.157,0.825,0.370,0.654,0.614,�k��,5.1,��
2021/04/11,01:20,0.633,0.940,0.589,1.158,0.825,0.370,0.653,0.614,�k��,4.5,��
2021/04/11,01:30,0.632,0.937,0.589,1.159,0.827,0.371,0.653,0.613,�k�k��,5.6,��
2021/04/11,01:40,0.630,0.940,0.588,1.157,0.824,0.370,0.655,0.613,�k��,5.7,��
2021/04/11,01:50,0.631,0.939,0.591,1.160,0.825,0.371,0.652,0.615,�k�k��,5.5,��
2021/04/11,02:00,0.630,0.939,0.589,1.158,0.827,0.372,0.652,0.612,�k�k��,5.8,��
2021/04/11,02:10,0.631,0.935,0.590,1.159,0.826,0.371,0.653,0.614,�k�k��,5.7,��
2021/04/11,02:20,0.630,0.937,0.588,1.155,0.825,0.370,0.653,0.614,�k�k��,5.8,��
2021/04/11,02:30,0.632,0.939,0.588,1.161,0.827,0.372,0.653,0.614,�k�k��,6.5,��
2021/04/11,02:40,0.630,0.939,0.588,1.156,0.827,0.372,0.653,0.614,�k�k��,6.4,��
2021/04/11,02:50,0.631,0.940,0.588,1.158,0.827,0.371,0.653,0.611,�k�k��,6.1,��
2021/04/11,03:00,0.628,0.939,0.589,1.158,0.826,0.369,0.653,0.614,�k�k��,6.0,��
2021/04/11,03:10,0.629,0.939,0.589,1.157,0.825,0.371,0.652,0.613,�k�k��,5.7,��
2021/04/11,03:20,0.632,0.939,0.590,1.160,0.827,0.370,0.653,0.614,�k�k��,6.3,��
2021/04/11,03:30,0.631,0.938,0.588,1.157,0.827,0.371,0.651,0.613,�k�k��,6.2,��
2021/04/11,03:40,0.629,0.939,0.589,1.158,0.827,0.372,0.652,0.614,�k�k��,5.5,��
2021/04/11,03:50,0.630,0.938,0.590,1.157,0.826,0.371,0.653,0.613,�k�k��,5.8,��
2021/04/11,04:00,0.630,0.938,0.589,1.157,0.824,0.372,0.653,0.615,�k��,4.8,��
2021/04/11,04:10,0.631,0.937,0.590,1.157,0.826,0.371,0.653,0.615,�k��,5.1,��
2021/04/11,04:20,0.631,0.938,0.588,1.158,0.825,0.372,0.654,0.614,�k��,5.4,��
2021/04/11,04:30,0.631,0.939,0.589,1.157,0.825,0.371,0.652,0.613,�k��,5.0,��
2021/04/11,04:40,0.631,0.939,0.587,1.158,0.827,0.370,0.652,0.614,�k��,5.3,��
2021/04/11,04:50,0.631,0.938,0.587,1.157,0.824,0.370,0.652,0.614,�k��,5.3,��
2021/04/11,05:00,0.629,0.938,0.588,1.157,0.826,0.370,0.652,0.615,�k�k��,5.1,��
2021/04/11,05:10,0.630,0.938,0.589,1.158,0.824,0.370,0.653,0.613,�k�k��,5.1,��
2021/04/11,05:20,0.630,0.938,0.590,1.158,0.825,0.370,0.654,0.613,�k�k��,5.1,��
2021/04/11,05:30,0.630,0.938,0.589,1.158,0.825,0.370,0.654,0.614,�k�k��,4.9,��
2021/04/11,05:40,0.631,0.939,0.587,1.161,0.826,0.370,0.652,0.615,�k�k��,4.9,��
2021/04/11,05:50,0.630,0.939,0.588,1.158,0.826,0.370,0.651,0.612,�k�k��,4.3,��
2021/04/11,06:00,0.629,0.938,0.588,1.159,0.825,0.370,0.654,0.614,�k��,5.1,��
2021/04/11,06:10,0.629,0.939,0.589,1.159,0.824,0.372,0.653,0.614,�k��,4.7,��
2021/04/11,06:20,0.630,0.938,0.588,1.158,0.823,0.371,0.652,0.613,�k�k��,4.6,��
2021/04/11,06:30,0.631,0.940,0.587,1.157,0.825,0.370,0.653,0.615,�k��,4.3,��
2021/04/11,06:40,0.631,0.938,0.587,1.160,0.825,0.371,0.654,0.614,�k�k��,4.2,��
2021/04/11,06:50,0.630,0.939,0.588,1.159,0.826,0.370,0.655,0.614,�k�k��,4.7,��
2021/04/11,07:00,0.630,0.940,0.588,1.158,0.824,0.370,0.653,0.614,�k�k��,4.7,��
2021/04/11,07:10,0.631,0.937,0.589,1.159,0.827,0.371,0.654,0.613,�k�k��,4.5,��
2021/04/11,07:20,0.630,0.938,0.589,1.160,0.825,0.372,0.654,0.613,�k�k��,3.5,��
2021/04/11,07:30,0.632,0.941,0.589,1.159,0.824,0.373,0.652,0.614,�k�k��,3.2,��
2021/04/11,07:40,0.631,0.939,0.590,1.159,0.826,0.372,0.653,0.614,�k�k��,3.0,��
2021/04/11,07:50,0.630,0.938,0.588,1.158,0.825,0.369,0.655,0.616,�k,3.4,��
2021/04/11,08:00,0.632,0.937,0.590,1.160,0.827,0.371,0.654,0.614,�k,2.6,��
2021/04/11,08:10,0.633,0.939,0.591,1.160,0.828,0.371,0.653,0.614,�k�k��,2.9,��
2021/04/11,08:20,0.632,0.940,0.589,1.160,0.827,0.370,0.652,0.616,�k�k��,3.2,��
2021/04/11,08:30,0.634,0.942,0.590,1.161,0.827,0.371,0.654,0.616,�k�k��,3.2,��
2021/04/11,08:40,0.633,0.938,0.590,1.158,0.828,0.369,0.653,0.614,�k��,3.3,��
2021/04/11,08:50,0.632,0.940,0.590,1.160,0.827,0.370,0.652,0.614,�k��,3.9,��
2021/04/11,09:00,0.634,0.939,0.591,1.158,0.827,0.369,0.652,0.614,�k��,4.1,��
2021/04/11,09:10,0.633,0.937,0.591,1.160,0.828,0.369,0.651,0.613,�k�k��,4.2,��
2021/04/11,09:20,0.634,0.938,0.590,1.161,0.829,0.369,0.651,0.613,�k�k��,3.7,��
2021/04/11,09:30,0.632,0.939,0.590,1.160,0.827,0.370,0.652,0.612,�k�k��,4.1,��
2021/04/11,09:40,0.632,0.941,0.590,1.162,0.829,0.371,0.654,0.612,�k��,4.9,��
2021/04/11,09:50,0.634,0.939,0.591,1.161,0.829,0.370,0.653,0.611,�k��,5.1,��
2021/04/11,10:00,0.633,0.938,0.589,1.161,0.829,0.370,0.653,0.612,�k�k��,5.2,��
2021/04/11,10:10,0.634,0.940,0.590,1.161,0.830,0.369,0.651,0.611,�k�k��,5.3,��
2021/04/11,10:20,0.632,0.941,0.591,1.161,0.828,0.371,0.652,0.613,�k�k��,5.0,��
2021/04/11,10:30,0.631,0.940,0.589,1.159,0.828,0.370,0.652,0.614,�k�k��,5.0,��
2021/04/11,10:40,0.631,0.939,0.590,1.158,0.828,0.370,0.651,0.613,�k�k��,4.1,��
2021/04/11,10:50,0.634,0.940,0.590,1.160,0.827,0.371,0.653,0.612,�k,4.0,��
2021/04/11,11:00,0.633,0.938,0.591,1.162,0.829,0.370,0.653,0.612,�k��,3.7,��
2021/04/11,11:10,0.634,0.941,0.590,1.160,0.830,0.371,0.654,0.613,���k��,4.1,��
2021/04/11,11:20,0.633,0.941,0.590,1.158,0.830,0.370,0.652,0.612,�k��,3.9,��
2021/04/11,11:30,0.634,0.941,0.590,1.160,0.829,0.371,0.654,0.613,�k��,3.7,��
2021/04/11,11:40,0.634,0.943,0.589,1.161,0.827,0.371,0.653,0.612,�k��,3.8,��
2021/04/11,11:50,0.632,0.941,0.591,1.160,0.828,0.370,0.652,0.613,���k��,3.6,��
2021/04/11,12:00,0.632,0.940,0.590,1.161,0.828,0.370,0.655,0.614,���k��,3.5,��
2021/04/11,12:10,0.631,0.942,0.589,1.162,0.828,0.371,0.653,0.614,���k��,2.8,��
2021/04/11,12:20,0.633,0.941,0.590,1.162,0.828,0.372,0.653,0.614,���k��,3.2,��
2021/04/11,12:30,0.632,0.943,0.591,1.161,0.827,0.372,0.655,0.613,���k��,2.9,��
2021/04/11,12:40,0.634,0.943,0.589,1.162,0.828,0.373,0.652,0.612,���k��,2.8,��
2021/04/11,12:50,0.632,0.941,0.589,1.163,0.829,0.373,0.655,0.612,���k��,3.2,��
2021/04/11,13:00,0.634,0.943,0.589,1.160,0.830,0.373,0.653,0.613,���k��,2.9,��
2021/04/11,13:10,0.633,0.943,0.590,1.161,0.831,0.373,0.654,0.614,��,3.1,��
2021/04/11,13:20,0.635,0.944,0.590,1.163,0.828,0.373,0.654,0.614,��,3.0,��
2021/04/11,13:30,0.635,0.941,0.589,1.158,0.829,0.373,0.655,0.615,��,2.6,��
2021/04/11,13:40,0.633,0.943,0.591,1.161,0.829,0.371,0.654,0.613,��,3.2,��
2021/04/11,13:50,0.633,0.944,0.591,1.162,0.829,0.371,0.655,0.612,���쓌,3.3,��
2021/04/11,14:00,0.633,0.943,0.590,1.160,0.832,0.371,0.656,0.614,���쓌,3.6,��
2021/04/11,14:10,0.634,0.941,0.591,1.163,0.828,0.372,0.655,0.614,���쓌,2.6,��
2021/04/11,14:20,0.634,0.941,0.591,1.164,0.830,0.373,0.655,0.614,���쓌,3.2,��
2021/04/11,14:30,0.635,0.942,0.589,1.162,0.831,0.371,0.654,0.611,���쓌,3.9,��
2021/04/11,14:40,0.635,0.942,0.589,1.160,0.829,0.371,0.655,0.614,���쓌,3.0,��
2021/04/11,14:50,0.634,0.943,0.592,1.165,0.830,0.372,0.656,0.614,���쓌,2.5,��
2021/04/11,15:00,0.634,0.944,0.590,1.164,0.828,0.373,0.655,0.614,�쓌,3.9,��
2021/04/11,15:10,0.633,0.944,0.591,1.163,0.831,0.372,0.655,0.615,���쓌,4.3,��
2021/04/11,15:20,0.637,0.944,0.590,1.163,0.831,0.373,0.654,0.612,���쓌,3.8,��
2021/04/11,15:30,0.633,0.944,0.590,1.161,0.832,0.372,0.655,0.614,���쓌,3.0,��
2021/04/11,15:40,0.635,0.944,0.591,1.158,0.832,0.374,0.656,0.612,�쓌,3.3,��
2021/04/11,15:50,0.634,0.942,0.592,1.157,0.834,0.374,0.654,0.614,�쓌,2.9,��
2021/04/11,16:00,0.635,0.944,0.591,1.159,0.831,0.373,0.655,0.612,���쓌,3.6,��
2021/04/11,16:10,0.634,0.943,0.591,1.160,0.831,0.373,0.654,0.613,���쓌,3.4,��
2021/04/11,16:20,0.634,0.945,0.592,1.159,0.832,0.374,0.655,0.613,���쓌,2.8,��
2021/04/11,16:30,0.637,0.946,0.593,1.158,0.830,0.373,0.654,0.613,�쓌,2.6,��
2021/04/11,16:40,0.634,0.946,0.591,1.161,0.831,0.374,0.653,0.614,�쓌,2.9,��
2021/04/11,16:50,0.635,0.946,0.591,1.160,0.831,0.375,0.657,0.615,�쓌,2.3,��
2021/04/11,17:00,0.633,0.947,0.591,1.159,0.832,0.374,0.656,0.615,��쓌,2.9,��
2021/04/11,17:10,0.635,0.947,0.592,1.161,0.832,0.373,0.654,0.615,��쓌,3.3,��
2021/04/11,17:20,0.635,0.948,0.592,1.158,0.831,0.372,0.655,0.616,��쓌,2.6,��
2021/04/11,17:30,0.634,0.946,0.591,1.161,0.830,0.374,0.653,0.615,��쓌,2.6,��
2021/04/11,17:40,0.637,0.947,0.592,1.162,0.831,0.374,0.653,0.615,��,2.6,��
2021/04/11,17:50,0.635,0.946,0.590,1.163,0.827,0.374,0.653,0.615,��,2.9,��
2021/04/11,18:00,0.634,0.946,0.591,1.163,0.831,0.373,0.654,0.617,��쓌,2.5,��
2021/04/11,18:10,0.639,0.946,0.592,1.165,0.833,0.371,0.653,0.615,��,2.6,��
2021/04/11,18:20,0.634,0.948,0.592,1.161,0.832,0.373,0.655,0.614,��,2.0,��
2021/04/11,18:30,0.635,0.946,0.591,1.163,0.832,0.373,0.655,0.615,��,2.2,��
2021/04/11,18:40,0.636,0.948,0.591,1.163,0.835,0.371,0.655,0.616,��,2.2,��
2021/04/11,18:50,0.635,0.946,0.592,1.161,0.833,0.374,0.655,0.615,��쐼,2.0,��
2021/04/11,19:00,0.634,0.949,0.592,1.164,0.833,0.372,0.655,0.616,��쐼,2.2,��
2021/04/11,19:10,0.636,0.945,0.592,1.163,0.832,0.372,0.656,0.615,��쐼,2.3,��
2021/04/11,19:20,0.635,0.948,0.591,1.163,0.832,0.375,0.658,0.615,��쐼,2.2,��
2021/04/11,19:30,0.636,0.947,0.593,1.162,0.832,0.372,0.656,0.616,��쐼,2.6,��
2021/04/11,19:40,0.638,0.945,0.591,1.160,0.830,0.373,0.655,0.614,��쐼,2.8,��
2021/04/11,19:50,0.634,0.946,0.592,1.163,0.834,0.372,0.655,0.615,��쐼,2.8,��
2021/04/11,20:00,0.634,0.947,0.593,1.162,0.832,0.372,0.655,0.615,��쐼,3.0,��
2021/04/11,20:10,0.634,0.946,0.592,1.163,0.831,0.372,0.657,0.614,��쐼,2.9,��
2021/04/11,20:20,0.633,0.945,0.593,1.163,0.831,0.373,0.655,0.614,��,2.2,��
2021/04/11,20:30,0.634,0.947,0.592,1.158,0.832,0.372,0.655,0.614,��쐼,2.8,��
2021/04/11,20:40,0.636,0.946,0.592,1.161,0.834,0.372,0.656,0.615,��쐼,3.5,��
2021/04/11,20:50,0.636,0.945,0.590,1.165,0.832,0.373,0.656,0.615,��쐼,3.9,��
2021/04/11,21:00,0.635,0.946,0.590,1.162,0.830,0.373,0.655,0.615,��쐼,3.9,��
2021/04/11,21:10,0.636,0.943,0.591,1.161,0.833,0.372,0.655,0.615,��쐼,4.0,��
2021/04/11,21:20,0.635,0.945,0.590,1.161,0.833,0.373,0.655,0.614,��쐼,4.3,��
2021/04/11,21:30,0.634,0.944,0.591,1.161,0.832,0.372,0.654,0.616,��쐼,4.3,��
2021/04/11,21:40,0.634,0.942,0.591,1.161,0.831,0.373,0.654,0.615,��쐼,4.3,��
2021/04/11,21:50,0.633,0.946,0.590,1.163,0.833,0.372,0.654,0.615,��쐼,4.5,��
2021/04/11,22:00,0.635,0.945,0.590,1.162,0.832,0.372,0.654,0.615,��쐼,4.7,��
2021/04/11,22:10,0.635,0.946,0.591,1.161,0.831,0.373,0.654,0.616,��쐼,4.6,��
2021/04/11,22:20,0.633,0.944,0.592,1.164,0.831,0.371,0.654,0.616,��쐼,4.7,��
2021/04/11,22:30,0.635,0.945,0.592,1.164,0.833,0.372,0.654,0.615,�쐼,5.1,��
2021/04/11,22:40,0.634,0.945,0.591,1.161,0.832,0.372,0.654,0.615,��쐼,4.9,��
2021/04/11,22:50,0.636,0.943,0.593,1.162,0.832,0.372,0.657,0.614,��쐼,4.8,��
2021/04/11,23:00,0.634,0.944,0.591,1.159,0.831,0.374,0.654,0.615,��쐼,4.5,��
2021/04/11,23:10,0.635,0.945,0.593,1.164,0.832,0.373,0.655,0.615,��쐼,3.9,��
2021/04/11,23:20,0.635,0.943,0.591,1.163,0.830,0.372,0.656,0.615,��쐼,4.0,��
2021/04/11,23:30,0.633,0.944,0.590,1.161,0.832,0.371,0.655,0.615,�쐼,4.4,��
2021/04/11,23:40,0.635,0.945,0.591,1.163,0.830,0.372,0.656,0.615,�쐼,4.8,��
2021/04/11,23:50,0.635,0.943,0.592,1.160,0.830,0.371,0.655,0.614,��쐼,4.9,��
